Regional Weather Roundup
Issued by NWS

Home | Current Version | Previous Version | Text Only | Print | Product List | Glossary Off
Versions: 1 2 3 4 5 6 7 8 9 10 11 12 13 14 15 16 17 18 19 20 21 22 23 24 25 26 27 28 29 30 31 32 33 34 35 36 37 38 39 40 41 42 43 44 45 46 47 48 49 50

000
ASUS43 KDTX 281701
RWRMI
MICHIGAN HOURLY REGIONAL WEATHER ROUNDUP
NATIONAL WEATHER SERVICE DETROIT/PONTIAC MI
1200 PM EST WED JAN 28 2015

NOTE: "FAIR" INDICATES FEW OR NO CLOUDS BELOW 12,000 FEET WITH NO
SIGNIFICANT WEATHER AND/OR OBSTRUCTION TO VISIBILITY.

MIZ047>049-052>055-059>063-066>070-074>076-081>083-281800-
SOUTHEAST LOWER MICHIGAN

CITY           SKY/WX    TMP DP  RH WIND       PRES   REMARKS
ADRIAN         SUNNY     24  10  55 S8        30.34F WCI  15
ALMA           SUNNY     25  15  65 S6        30.31F WCI  18
ANN ARBOR      SUNNY     27   9  46 SW7       30.33F WCI  19
BAD AXE        SUNNY     22  12  64 SW3       30.31F
CARO           SUNNY     26  10  50 S3        30.31F
DETROIT CITY   SUNNY     27  11  51 SE3       30.34F
DETROIT        MOSUNNY   26   7  44 S6        30.35F WCI  19
FLINT          SUNNY     27  11  51 SW5       30.32F WCI  22
GROSSE ILE     SUNNY     21  16  79 S7        30.34F WCI  13
HILLSDALE      SUNNY     25   7  46 S6        30.29F WCI  18
HOWELL         SUNNY     26  10  50 SW7       30.30F WCI  18

CITY           SKY/WX    TMP DP  RH WIND       PRES   REMARKS
JACKSON        SUNNY     27   7  42 S8        30.30F WCI  19
LAMBERTVILLE   SUNNY     28  10  47 CALM      30.35F
LANSING        SUNNY     27  11  51 S7        30.31F WCI  19
LAPEER         FAIR      24   9  53 CALM      30.32F
MASON          SUNNY     25  11  54 S5        30.31S WCI  20
MONROE         SUNNY     27  14  59 S6        30.33F WCI  20
MT. CLEMENS    MOSUNNY   23  11  60 SE3       30.32F
PONTIAC        MOSUNNY   26   7  44 CALM      30.30S
PORT HOPE        N/A     24  10  55 VRB6      30.30F WCI  17
PORT HURON     SUNNY     25  10  54 CALM      30.33F
TRI CITIES     SUNNY     26  12  55 SW8       30.31F WCI  18
TROY           SUNNY     29   3  33 CALM      30.34F
SAGINAW HB     SUNNY     27  14  59 S6        30.31F WCI  20
$$
MIZ043>046-050>051-056>058-064>065-071>073-077>080-281800-
SOUTHWEST LOWER MICHIGAN

CITY           SKY/WX    TMP DP  RH WIND       PRES   REMARKS
BATTLE CREEK   SUNNY     28   9  44 S10       30.30S WCI  19
BENTON HARBOR  MOSUNNY   28  11  48 S13G20    30.28F WCI  17
BIG RAPIDS     SUNNY     25  13  59 SE3       30.25S
COLDWATER      SUNNY     26   7  45 S12       30.30S WCI  15
FREMONT        FAIR      26  12  56 S6        30.27F WCI  19
HOLLAND        MOSUNNY   29  12  49 S7        30.29F WCI  22
GRAND RAPIDS   PTSUNNY   27  12  53 S12       30.29F WCI  17
IONIA          FAIR      29  14  53 S6        30.29S WCI  23
KALAMAZOO      SUNNY     27   8  44 S9        30.29F WCI  18
LUDINGTON      CLOUDY    29  18  64 SE8       30.25F WCI  21
MARSHALL       SUNNY     26  10  50 S8        30.29F WCI  18
MOUNT PLEASANT SUNNY     25  13  61 SE5       30.28F WCI  19
MUSKEGON       CLOUDY    28  12  51 S16G22    30.28F WCI  16
SOUTH HAVEN    MOSUNNY   29  10  44 SE9       30.29F WCI  21
$$
MIZ016>042-281800-
NORTHERN LOWER MICHIGAN

CITY           SKY/WX    TMP DP  RH WIND       PRES   REMARKS
ALPENA         SUNNY     22   3  44 CALM      30.28F
BEAVER ISLAND  CLOUDY    26  19  73 CALM      30.23F
BELLAIRE       SUNNY     22   7  52 CALM      30.27S
CADILLAC       SUNNY     24   8  51 S9        30.20F WCI  14
CHARLEVOIX     MOSUNNY   24   8  51 S7        30.28S WCI  16
FRANKFORT      SUNNY     28  18  64 S8        30.24F WCI  20
GAYLORD        SUNNY     19  -1  41 S6        30.21F WCI  11
GRAYLING       SUNNY     19   6  56 CALM      30.24F
HARBOR SPRINGS MOSUNNY   23   7  51 CALM      30.25S
HOUGHTON LAKE  SUNNY     23   7  50 SW3       30.25F
MANISTEE       PTSUNNY   27  12  54 S6        30.25F WCI  20
OSCODA         SUNNY     25   8  48 SW5       30.29F WCI  19
PELLSTON       MOSUNNY   20   6  55 SE3       30.26F
ROGERS CITY    SUNNY     22   8  54 E3        30.28F
TRAVERSE CITY  PTSUNNY   27   8  44 S3        30.24F
$$
MIZ007>008-015-281800-
EASTERN UPPER MICHIGAN

CITY           SKY/WX    TMP DP  RH WIND       PRES   REMARKS
KINROSS        CLOUDY    25  10  54 SE9       30.24F WCI  15
MACKINAC ISLAN MOSUNNY   24   4  44 S3        30.25S
NEWBERRY       CLOUDY    22  17  81 S8        30.21S WCI  12
S. S. MARIE    CLOUDY    16   3  56 E3        30.24F
MUNISING         N/A     29  18  63 S8G20     30.16F WCI  21
$$
MIZ004>006-011>014-085-281800-
CENTRAL UPPER MICHIGAN

CITY           SKY/WX    TMP DP  RH WIND       PRES   REMARKS
MANISTIQUE     CLOUDY    27  20  77 SW5       30.20F WCI  21
ESCANABA       CLOUDY    27  18  69 S10G16    30.20F WCI  17
MENOMINEE      CLOUDY    27  19  74 SW10G16   30.19F WCI  17
SAWYER-GWINN   CLOUDY    25  18  74 S17G23    30.11F WCI  11
$$
MIZ001>003-009>011-084-281800-
WESTERN UPPER MICHIGAN

CITY           SKY/WX    TMP DP  RH WIND       PRES   REMARKS
IRON MOUNTAIN  CLOUDY    25  18  74 S10       30.11F WCI  15
HOUGHTON       CLOUDY    27  21  78 SE10      30.03F WCI  17
COPPER HARBOR    N/A     29  22  75 VRB6      30.07F WCI  23
IRONWOOD       CLOUDY    27  21  80 SE8       29.97F WCI  18
$$

ABBREVIATIONS USED IN REMARKS
   TC - TEMPERATURE IN CELSIUS
  WCI - WIND CHILL INDEX
   HX - HEAT INDEX
  VSB - VISIBILITY




USA.gov is the U.S. government's official web portal to all federal, state and local government web resources and services.